TimeEST,TemperatureF,Dew PointF,Humidity,Sea Level PressureIn,VisibilityMPH,Wind Direction,Wind SpeedMPH,Gust SpeedMPH,PrecipitationIn,Events,Conditions,WindDirDegrees,DateUTC
12:53 AM,73.9,70.0,87,30.05,10.0,WSW,3.5,-,N/A,,Mostly Cloudy,240,2012-12-13 05:53:00
1:53 AM,73.9,70.0,87,30.04,10.0,SSW,5.8,-,N/A,,Scattered Clouds,200,2012-12-13 06:53:00
2:53 AM,73.9,70.0,87,30.04,10.0,SW,5.8,-,N/A,,Overcast,230,2012-12-13 07:53:00
3:53 AM,73.9,70.0,87,30.02,10.0,SW,5.8,-,N/A,,Mostly Cloudy,220,2012-12-13 08:53:00
4:53 AM,71.1,69.1,93,30.03,10.0,West,6.9,-,N/A,,Scattered Clouds,270,2012-12-13 09:53:00
5:53 AM,72.0,70.0,93,30.04,10.0,WSW,4.6,-,N/A,,Mostly Cloudy,240,2012-12-13 10:53:00
6:53 AM,72.0,70.0,93,30.05,10.0,SSW,5.8,-,N/A,,Mostly Cloudy,210,2012-12-13 11:53:00
7:53 AM,73.0,71.1,93,30.06,10.0,WSW,5.8,-,N/A,,Mostly Cloudy,250,2012-12-13 12:53:00
7:59 AM,73.4,71.6,94,30.07,10.0,WSW,8.1,-,N/A,,Mostly Cloudy,250,2012-12-13 12:59:00
8:29 AM,73.4,71.6,94,30.07,10.0,WSW,8.1,-,N/A,,Mostly Cloudy,240,2012-12-13 13:29:00
8:53 AM,75.0,73.0,94,30.07,10.0,WSW,6.9,-,N/A,,Mostly Cloudy,240,2012-12-13 13:53:00
9:16 AM,75.2,71.6,89,30.08,10.0,WSW,8.1,-,N/A,,Mostly Cloudy,240,2012-12-13 14:16:00
9:39 AM,73.4,71.6,94,30.09,2.5,Variable,5.8,-,0.00,Rain,Heavy Rain,0,2012-12-13 14:39:00
9:51 AM,73.4,71.6,94,30.09,1.5,NNW,9.2,-,0.20,Rain,Heavy Rain,330,2012-12-13 14:51:00
9:53 AM,73.0,71.1,93,30.09,1.5,NNW,9.2,-,0.21,Rain,Rain,330,2012-12-13 14:53:00
10:12 AM,71.6,69.8,94,30.10,0.8,North,13.8,-,0.09,Rain,Rain,350,2012-12-13 15:12:00
10:21 AM,71.6,69.8,94,30.10,1.5,NNW,13.8,-,0.10,Rain,Light Rain,340,2012-12-13 15:21:00
10:38 AM,71.6,69.8,94,30.11,0.8,NW,9.2,-,0.14,Rain,Rain,310,2012-12-13 15:38:00
10:45 AM,71.6,69.8,94,30.11,1.2,NW,9.2,-,0.16,Rain,Light Rain,310,2012-12-13 15:45:00
10:53 AM,71.1,69.1,93,30.11,1.0,NW,11.5,-,0.17,Rain,Heavy Rain,320,2012-12-13 15:53:00
11:06 AM,71.6,69.8,94,30.10,0.5,NNW,11.5,-,0.05,Fog-Rain,Rain,340,2012-12-13 16:06:00
11:25 AM,71.6,69.8,94,30.10,1.5,North,11.5,-,0.07,Rain,Light Rain,350,2012-12-13 16:25:00
11:37 AM,71.6,68.0,88,30.11,2.5,NNW,11.5,-,0.07,Rain,Light Rain,340,2012-12-13 16:37:00
11:46 AM,71.6,69.8,94,30.10,3.0,NNW,10.4,-,0.07,Rain,Light Rain,330,2012-12-13 16:46:00
11:53 AM,71.1,68.0,90,30.10,3.0,NNW,10.4,-,0.07,,Overcast,330,2012-12-13 16:53:00
12:53 PM,73.0,68.0,84,30.08,10.0,North,9.2,-,0.00,,Overcast,350,2012-12-13 17:53:00
1:53 PM,73.0,66.0,79,30.07,10.0,NNW,12.7,-,N/A,,Overcast,340,2012-12-13 18:53:00
2:32 PM,73.4,64.4,73,30.07,10.0,North,13.8,-,N/A,,Overcast,350,2012-12-13 19:32:00
2:41 PM,73.4,64.4,73,30.06,10.0,North,16.1,19.6,N/A,,Overcast,350,2012-12-13 19:41:00
2:53 PM,73.0,64.9,76,30.06,10.0,NNW,13.8,19.6,N/A,,Overcast,340,2012-12-13 19:53:00
3:53 PM,72.0,64.0,76,30.06,10.0,North,12.7,-,N/A,,Overcast,360,2012-12-13 20:53:00
4:53 PM,71.6,64.4,78,30.06,10.0,North,12.7,-,N/A,,Overcast,350,2012-12-13 21:53:00
5:29 PM,69.8,64.4,83,30.07,10.0,NNW,11.5,-,N/A,,Overcast,330,2012-12-13 22:29:00
5:53 PM,69.8,64.4,83,30.07,10.0,NNW,11.5,-,N/A,,Overcast,340,2012-12-13 22:53:00
7:53 PM,68.0,64.0,87,30.08,10.0,NNW,10.4,-,N/A,,Scattered Clouds,340,2012-12-14 00:53:00
8:53 PM,66.9,64.0,90,30.09,10.0,NW,10.4,-,N/A,,Scattered Clouds,320,2012-12-14 01:53:00
9:53 PM,66.9,63.0,87,30.10,10.0,NW,3.5,-,N/A,,Mostly Cloudy,310,2012-12-14 02:53:00
10:53 PM,66.0,64.0,93,30.09,10.0,NNW,8.1,-,N/A,,Scattered Clouds,330,2012-12-14 03:53:00
11:53 PM,64.9,63.0,93,30.09,10.0,NW,8.1,-,N/A,,Scattered Clouds,320,2012-12-14 04:53:00